When you browse on this site, cookies collect data to enhance your experience and personalize the content and advertising you see.
Visit our Privacy Policy to learn more. By continuing to use the site, you agree to this use of cookies and data.
  • In France
  • List of Countries
  • For 7 days
  • Water Temperature
  • Satellite Maps
  • Weather Map
  • Weather Widgets
  • user-avatar
    Login

    Hourly Weather Kitzbuhel

    Today, 18 December, Tuesday

    Time Temperature Precipitation Wind Pressure Humidity
    00:00 -2°C° 0.3 mm 2 mps 682 mmHg 94%
    01:00 0°C° 0 mm 1 mps 682 mmHg 95%
    02:00 -1°C° 0.1 mm 1 mps 682 mmHg 94%
    03:00 -1°C° 0.1 mm 1 mps 682 mmHg 93%
    04:00 -2°C° 0.1 mm 1 mps 682 mmHg 92%
    05:00 -2°C° 0 mm 1 mps 682 mmHg 90%
    06:00 -3°C° 0 mm 1 mps 682 mmHg 89%
    07:00 -3°C° 0 mm 1 mps 682 mmHg 87%
    08:00 -2°C° 0 mm 1 mps 682 mmHg 85%
    09:00 -1°C° 0 mm 1 mps 682 mmHg 82%
    10:00 0°C° 0 mm 1 mps 682 mmHg 79%
    11:00 +1°C° 0 mm 1 mps 682 mmHg 78%
    12:00 +2°C° 0 mm 1 mps 681 mmHg 76%
    13:00 +4°C° 0 mm 1 mps 681 mmHg 75%
    14:00 +3°C° 0 mm 1 mps 681 mmHg 77%
    15:00 +1°C° 0 mm 1 mps 680 mmHg 79%
    16:00 0°C° 0 mm 1 mps 680 mmHg 81%
    17:00 -1°C° 0 mm 1 mps 680 mmHg 78%
    18:00 -3°C° 0 mm 2 mps 680 mmHg 75%
    19:00 -4°C° 0 mm 2 mps 679 mmHg 72%
    20:00 -4°C° 0 mm 2 mps 679 mmHg 69%
    21:00 -4°C° 0 mm 2 mps 679 mmHg 67%
    22:00 -4°C° 0 mm 2 mps 679 mmHg 64%
    23:00 -4°C° 0 mm 2 mps 679 mmHg 63%

    Tomorrow, 19 December, Wednesday

    Time Temperature Precipitation Wind Pressure Humidity
    00:00 -4°C° 0 mm 2 mps 678 mmHg 62%
    01:00 -3°C° 0 mm 2 mps 678 mmHg 60%
    02:00 -3°C° 0 mm 2 mps 678 mmHg 60%
    03:00 -3°C° 0 mm 2 mps 677 mmHg 60%
    04:00 -3°C° 0 mm 2 mps 677 mmHg 60%
    05:00 -3°C° 0 mm 2 mps 677 mmHg 60%
    06:00 -3°C° 0 mm 2 mps 677 mmHg 60%
    07:00 -3°C° 0 mm 2 mps 677 mmHg 61%
    08:00 -2°C° 0 mm 2 mps 677 mmHg 63%
    09:00 +1°C° 0 mm 1 mps 678 mmHg 65%
    10:00 +2°C° 0 mm 1 mps 678 mmHg 67%
    11:00 +3°C° 0 mm 1 mps 678 mmHg 69%
    12:00 +4°C° 0 mm 1 mps 677 mmHg 71%
    13:00 +5°C° 0 mm 1 mps 677 mmHg 73%
    14:00 +4°C° 0 mm 1 mps 677 mmHg 74%
    15:00 +3°C° 0 mm 1 mps 676 mmHg 74%
    16:00 +3°C° 0 mm 1 mps 676 mmHg 75%
    17:00 +1°C° 0 mm 1 mps 676 mmHg 75%
    18:00 -2°C° 0 mm 2 mps 675 mmHg 75%
    19:00 -3°C° 0 mm 2 mps 675 mmHg 76%
    20:00 -3°C° 0 mm 2 mps 675 mmHg 76%
    21:00 -3°C° 0 mm 2 mps 675 mmHg 77%
    22:00 -3°C° 0 mm 2 mps 675 mmHg 78%
    23:00 -3°C° 0 mm 2 mps 675 mmHg 79%

    Day after tomorrow, 20 December, Thursday

    Time Temperature Precipitation Wind Pressure Humidity
    00:00 -3°C° 0 mm 2 mps 675 mmHg 80%
    01:00 -3°C° 0 mm 2 mps 675 mmHg 82%
    02:00 -1°C° 0.1 mm 1 mps 675 mmHg 83%
    03:00 0°C° 0.1 mm 1 mps 676 mmHg 85%
    04:00 0°C° 0.1 mm 1 mps 676 mmHg 87%
    05:00 0°C° 0.3 mm 1 mps 676 mmHg 88%
    06:00 0°C° 0.3 mm 1 mps 676 mmHg 90%
    07:00 +1°C° 0.3 mm 1 mps 676 mmHg 91%
    08:00 +1°C° 0.3 mm 1 mps 676 mmHg 91%
    09:00 +2°C° 0.3 mm 1 mps 677 mmHg 91%
    10:00 +2°C° 0.3 mm 1 mps 677 mmHg 91%
    11:00 +3°C° 0.4 mm 1 mps 677 mmHg 91%
    12:00 +3°C° 0.4 mm 1 mps 677 mmHg 91%
    13:00 +4°C° 0.4 mm 1 mps 676 mmHg 92%
    14:00 +3°C° 0.2 mm 1 mps 677 mmHg 92%
    15:00 +3°C° 0.2 mm 1 mps 677 mmHg 92%
    16:00 +1°C° 0.2 mm 2 mps 677 mmHg 93%
    17:00 +1°C° 0.2 mm 2 mps 677 mmHg 92%
    18:00 +1°C° 0.2 mm 2 mps 678 mmHg 92%
    19:00 -1°C° 0.2 mm 2 mps 678 mmHg 91%
    20:00 -2°C° 0.1 mm 2 mps 678 mmHg 90%
    21:00 0°C° 0.1 mm 1 mps 679 mmHg 89%
    22:00 -1°C° 0.1 mm 1 mps 679 mmHg 88%
    23:00 -1°C° 0.2 mm 1 mps 679 mmHg 87%

    21 December, Friday

    Time Temperature Precipitation Wind Pressure Humidity
    00:00 -1°C° 0.2 mm 1 mps 679 mmHg 86%
    01:00 -1°C° 0.2 mm 1 mps 679 mmHg 84%
    02:00 -3°C° 0 mm 2 mps 679 mmHg 82%
    03:00 -3°C° 0 mm 2 mps 679 mmHg 81%
    04:00 -4°C° 0 mm 2 mps 679 mmHg 79%
    05:00 -3°C° 0 mm 2 mps 679 mmHg 78%
    06:00 -3°C° 0 mm 2 mps 679 mmHg 76%
    07:00 -3°C° 0 mm 2 mps 678 mmHg 75%
    08:00 -2°C° 0 mm 2 mps 678 mmHg 74%
    09:00 -1°C° 0 mm 2 mps 678 mmHg 73%
    10:00 +1°C° 0 mm 2 mps 678 mmHg 73%
    11:00 +2°C° 0 mm 2 mps 678 mmHg 73%
    12:00 +2°C° 0 mm 3 mps 677 mmHg 74%
    13:00 +2°C° 0 mm 3 mps 677 mmHg 75%
    14:00 +2°C° 0.2 mm 3 mps 676 mmHg 77%
    15:00 +3°C° 0.2 mm 2 mps 676 mmHg 78%
    16:00 +3°C° 0.2 mm 2 mps 676 mmHg 80%
    17:00 +3°C° 0.6 mm 2 mps 676 mmHg 80%
    18:00 +3°C° 0.6 mm 2 mps 677 mmHg 80%
    19:00 +3°C° 0.6 mm 2 mps 677 mmHg 80%
    20:00 +3°C° 0.1 mm 2 mps 677 mmHg 80%
    21:00 +3°C° 0.1 mm 2 mps 677 mmHg 80%
    22:00 +3°C° 0.1 mm 2 mps 677 mmHg 80%
    23:00 +3°C° 0.2 mm 2 mps 677 mmHg 83%

    22 December, Saturday

    Time Temperature Precipitation Wind Pressure Humidity
    00:00 +4°C° 0.2 mm 2 mps 677 mmHg 85%
    01:00 +4°C° 0.2 mm 2 mps 678 mmHg 88%
    02:00 +4°C° 0.2 mm 2 mps 678 mmHg 89%
    03:00 +4°C° 0.2 mm 2 mps 678 mmHg 90%
    04:00 +5°C° 0.2 mm 1 mps 678 mmHg 90%
    05:00 +4°C° 0 mm 1 mps 678 mmHg 90%
    06:00 +4°C° 0 mm 1 mps 677 mmHg 89%
    07:00 +4°C° 0 mm 1 mps 677 mmHg 89%
    08:00 +3°C° 0.4 mm 2 mps 677 mmHg 89%
    09:00 +4°C° 0.4 mm 2 mps 678 mmHg 90%
    10:00 +5°C° 0.4 mm 2 mps 678 mmHg 90%
    11:00 +5°C° 1.1 mm 2 mps 678 mmHg 91%
    12:00 +5°C° 1.1 mm 2 mps 677 mmHg 93%
    13:00 +5°C° 1.1 mm 2 mps 677 mmHg 94%
    14:00 +5°C° 0.7 mm 2 mps 677 mmHg 93%
    15:00 +5°C° 0.7 mm 2 mps 677 mmHg 92%
    16:00 +6°C° 0.7 mm 1 mps 677 mmHg 91%
    17:00 +5°C° 0.2 mm 2 mps 677 mmHg 90%
    18:00 +5°C° 0.2 mm 2 mps 677 mmHg 89%
    19:00 +5°C° 0.2 mm 2 mps 678 mmHg 88%
    20:00 +5°C° 0.3 mm 2 mps 678 mmHg 88%
    21:00 +5°C° 0.3 mm 2 mps 678 mmHg 89%
    22:00 +5°C° 0.3 mm 2 mps 678 mmHg 89%
    23:00 +5°C° 0.7 mm 2 mps 679 mmHg 90%

    23 December, Sunday

    Time Temperature Precipitation Wind Pressure Humidity
    00:00 +5°C° 0.7 mm 2 mps 679 mmHg 91%
    01:00 +4°C° 0.7 mm 2 mps 679 mmHg 92%
    02:00 +4°C° 0.7 mm 2 mps 679 mmHg 93%
    03:00 +4°C° 0.7 mm 2 mps 679 mmHg 93%
    04:00 +4°C° 0.7 mm 2 mps 680 mmHg 94%
    05:00 +4°C° 0.5 mm 2 mps 680 mmHg 94%
    06:00 +4°C° 0.5 mm 2 mps 680 mmHg 94%
    07:00 +3°C° 0.5 mm 2 mps 681 mmHg 94%
    08:00 +5°C° 0.5 mm 1 mps 681 mmHg 94%
    09:00 +5°C° 0.5 mm 1 mps 681 mmHg 94%
    10:00 +5°C° 0.5 mm 1 mps 681 mmHg 94%
    11:00 +5°C° 0.9 mm 1 mps 681 mmHg 95%
    12:00 +5°C° 0.9 mm 1 mps 681 mmHg 95%
    13:00 +6°C° 0.9 mm 1 mps 681 mmHg 96%
    14:00 +5°C° 0.7 mm 1 mps 681 mmHg 95%
    15:00 +5°C° 0.7 mm 1 mps 681 mmHg 95%
    16:00 +5°C° 0.7 mm 1 mps 681 mmHg 95%
    17:00 +5°C° 0.4 mm 1 mps 682 mmHg 94%
    18:00 +5°C° 0.4 mm 1 mps 682 mmHg 93%
    19:00 +5°C° 0.4 mm 1 mps 682 mmHg 93%
    20:00 +5°C° 0.4 mm 1 mps 682 mmHg 92%
    21:00 +5°C° 0.4 mm 1 mps 682 mmHg 92%
    22:00 +5°C° 0.4 mm 2 mps 683 mmHg 91%
    23:00 +4°C° 0.2 mm 2 mps 682 mmHg 91%
    Show more